AGROMETEOROLOŠKI PORTAL
Vinorodna pokrajina

Temelj dobrega kmetovanja.

Pregled podatkov za lokacijo Litmerk - bionomija in RLP, meteorološka postaja 514779

Pregled senzorjev na lokaciji

ID Ime Zadnja
vrednost
Datum in čas
meritve
(lokalni čas)
Tip
senzorja
6448 Omočenost lista (1,5 m) (U) 0 U 15.4.2024 07:00 A730WET
6457 Padavine (mm) 0 mm 15.4.2024 07:00 Generic 0.2 mm
6452 Relativna zračna vlaga (2 m) (%RH) 54 %RH 15.4.2024 07:00 50YA
6451 Temperatura (2 m) (°C) 17,7 °C 15.4.2024 07:00 50YA

Pregled podatkov zadnjih 24 ur

Zap.
št.
Datum in čas
(lokalni čas)
Litmerk - bionomija in RLP
Omočenost
lista
(1,5
m)
Padavine Relativna
zračna
vlaga
(2
m)
Temperatura
(2
m)
1 15.4.2024 07:00 0 0 53,7 17,7
2 15.4.2024 06:30 0 0 56,7 17,8
3 15.4.2024 06:00 0 0 59,3 17,7
4 15.4.2024 05:30 0 0 58,7 17,9
5 15.4.2024 05:00 0 0 58,4 18
6 15.4.2024 04:30 0 0 57,6 18,4
7 15.4.2024 04:00 0 0 56,8 18,7
8 15.4.2024 03:30 0 0 55,1 18,8
9 15.4.2024 03:00 0 0 48,8 19,1
10 15.4.2024 02:30 0 0 45,3 19,2
11 15.4.2024 02:00 0 0 42,7 19,6
12 15.4.2024 01:30 0 0 42,8 19,6
13 15.4.2024 01:00 0 0 44,7 19,3
14 15.4.2024 00:30 0 0 43,6 19,8
15 15.4.2024 00:00 0 0 41,8 20,7
16 14.4.2024 23:30 0 0 41,8 21
17 14.4.2024 23:00 0 0 41,4 21,4
18 14.4.2024 22:30 0 0 40,4 21,8
19 14.4.2024 22:00 0 0 39,6 22,4
20 14.4.2024 21:30 0 0 39 23,2
21 14.4.2024 21:00 0 0 38,9 23,9
22 14.4.2024 20:30 0 0 38,3 24,5
23 14.4.2024 20:00 0 0 35,8 25,3
24 14.4.2024 19:30 0 0 35 26,2
25 14.4.2024 19:00 0 0 34,5 27,2
26 14.4.2024 18:30 0 0 33,5 28,1
27 14.4.2024 18:00 0 0 35,6 28,5
28 14.4.2024 17:30 0 0 35,3 28,9
29 14.4.2024 17:00 0 0 35,5 29,1
30 14.4.2024 16:30 0 0 40,3 28,9
31 14.4.2024 16:00 0 0 42,1 28,6
32 14.4.2024 15:30 0 0 44,4 28
33 14.4.2024 15:00 0 0 46,1 27,6
34 14.4.2024 14:30 0 0 43,9 27,5
35 14.4.2024 14:00 0 0 45,8 27,2
36 14.4.2024 13:30 0 0 46,4 26,7
37 14.4.2024 13:00 0 0 47,5 25,9
38 14.4.2024 12:30 0 0 49,5 25,3
39 14.4.2024 12:00 0 0 51,9 24,4
40 14.4.2024 11:30 0 0 55,3 23,1
41 14.4.2024 11:00 0 0 57,4 22,1
42 14.4.2024 10:30 0 0 59,7 21
43 14.4.2024 10:00 0 0 61,6 20
44 14.4.2024 09:30 0 0 64,4 18,9
45 14.4.2024 09:00 0 0 65,8 17,8
46 14.4.2024 08:30 0 0 68,5 16,5